This is the latest recevied weather packets stored in our database for station/object F5BCB-10. If no packets are shown the sender has not sent any weather packets the latest 10 day(s).
| Time | Temp. | Humidity | Pressure | Rain* | Wind** | Luminosity | Snow |
|---|---|---|---|---|---|---|---|
| 1777248314 | 23.89° C | 30% | 1022.7 hPa | - | - | - | - |
| 1777247413 | 23.33° C | 30% | 1022.7 hPa | - | - | - | - |
| 1777246513 | 23.89° C | 30% | 1022.8 hPa | - | - | - | - |
| 1777245612 | 23.33° C | 30% | 1022.8 hPa | - | - | - | - |
| 1777244712 | 23.89° C | 30% | 1022.7 hPa | - | - | - | - |
| 1777243811 | 23.89° C | 30% | 1022.8 hPa | - | - | - | - |
| 1777242910 | 23.89° C | 31% | 1022.8 hPa | - | - | - | - |
| 1777242009 | 23.89° C | 30% | 1022.9 hPa | - | - | - | - |
| 1777241109 | 23.89° C | 32% | 1022.9 hPa | - | - | - | - |
| 1777240208 | 24.44° C | 32% | 1022.8 hPa | - | - | - | - |
| 1777239307 | 24.44° C | 32% | 1022.8 hPa | - | - | - | - |
| 1777238406 | 25° C | 31% | 1022.8 hPa | - | - | - | - |
| 1777237506 | 22.78° C | 32% | 1022.7 hPa | - | - | - | - |
| 1777236605 | 22.22° C | 35% | 1022.7 hPa | - | - | - | - |
| 1777235703 | 22.22° C | 35% | 1022.6 hPa | - | - | - | - |
| 1777234803 | 22.22° C | 35% | 1022.5 hPa | - | - | - | - |
| 1777233902 | 22.22° C | 34% | 1022.3 hPa | - | - | - | - |
| 1777233001 | 22.22° C | 33% | 1022.4 hPa | - | - | - | - |
| 1777232100 | 22.22° C | 33% | 1022 hPa | - | - | - | - |
| 1777231200 | 22.22° C | 34% | 1021.7 hPa | - | - | - | - |
| 1777230299 | 22.22° C | 33% | 1021.6 hPa | - | - | - | - |
| 1777229399 | 22.22° C | 32% | 1021.6 hPa | - | - | - | - |
| 1777228499 | 22.78° C | 31% | 1021.3 hPa | - | - | - | - |
| 1777227599 | 22.78° C | 31% | 1021.3 hPa | - | - | - | - |
| 1777226698 | 22.78° C | 31% | 1021.2 hPa | - | - | - | - |
* Rain since midnight (hover to see other rain measurements)
** Current wind speed in m/s (hover to see current wind gust speed)